RH
90 74 68 70 73 81 89 94 93 87 82 78 78 78 78 80 80 81 78 73 71 73 76 76 73 72 72 77 82 88 96 97 98 102 102 101 96 93 88 66 50 49 47 44 38 31 27 26 22 20 19 21 31 45 54 61 69 76 82 88 94 98 98 99 102 104 104 102 98 93 91 93 97 99 99 103 106 108 106 97 84 73 63 56 53
95 84 76 76 77 82 90 93 91 88 85 82 81 78 79 81 80 80 76 73 77 80 79 78 76 78 83 89 94 96 98 97 98 102 103 102 99 95 81 56 48 52 49 41 32 28 27 24 21 20 23 31 43 57 70 80 88 94 96 96 97 99 100 102 104 103 102 101 100 100 102 104 105 103 105 109 105 96 86 75 67 61 54 50 48
102 97 87 85 83 86 94 94 91 89 86 84 81 78 82 86 86 84 81 81 84 84 85 87 90 93 98 102 101 99 99 100 102 101 100 102 96 83 63 51 53 55 47 36 29 28 27 23 21 24 33 45 55 67 78 85 91 98 100 100 101 103 104 104 103 103 104 103 101 102 104 106 104 100 98 95 84 73 69 65 59 52 46 45 44
102 101 96 95 93 94 97 92 89 89 87 85 79 74 78 85 88 89 94 97 96 95 99 102 103 101 101 104 102 100 101 103 103 102 103 102 90 72 59 58 60 56 44 32 28 28 26 23 24 32 46 57 67 75 81 86 92 96 101 106 108 109 108 104 100 97 96 96 99 99 96 98 99 91 83 75 69 68 67 59 50 45 43 43 41
97 99 97 94 95 96 94 87 86 89 89 84 76 75 80 82 83 86 94 101 101 101 103 103 102 101 101 101 100 101 100 102 103 104 105 98 85 75 69 66 63 54 39 29 29 29 26 24 28 42 60 74 83 89 92 95 98 100 107 111 109 106 101 92 86 84 86 91 94 89 82 81 79 72 70 71 71 68 59 50 45 43 42 40 40
94 93 92 91 92 94 92 89 88 89 89 84 78 84 94 94 90 89 93 99 98 99 100 101 102 103 101 96 96 100 99 101 102 99 98 93 86 77 69 67 63 49 34 29 32 29 25 27 35 52 73 92 100 102 104 104 104 105 106 105 99 92 85 80 79 81 85 88 84 77 70 64 60 62 70 71 64 56 49 46 44 41 39 40 41
94 93 92 92 91 91 91 91 91 88 85 85 83 85 91 93 88 86 89 91 93 97 99 100 101 101 102 99 98 98 95 94 92 88 87 86 79 71 69 68 59 42 30 31 34 29 26 31 42 59 78 94 100 100 101 99 99 99 97 93 87 81 80 83 86 87 87 83 74 64 58 56 63 71 71 62 54 50 46 42 40 39 41 42 43
99 99 101 98 93 91 92 92 92 86 82 84 85 83 84 85 82 79 80 79 82 93 99 103 103 99 101 102 101 97 88 83 79 74 74 77 76 76 76 65 50 36 28 34 37 28 28 37 48 63 79 89 92 91 92 93 95 95 92 85 79 80 87 92 92 87 78 68 56 53 59 68 74 71 62 54 50 46 43 41 40 41 41 43 46
103 105 107 103 97 94 95 97 93 85 84 86 85 84 87 88 84 79 77 74 73 77 85 95 101 100 102 103 101 99 94 91 88 78 80 90 91 84 73 56 42 31 29 39 38 26 32 45 55 67 78 86 89 91 93 93 92 87 81 80 83 92 97 93 83 69 57 50 51 59 71 74 69 64 58 52 45 40 39 42 44 45 46 48 49
104 106 105 100 95 96 99 100 94 88 90 92 89 88 91 91 87 84 82 82 79 75 76 82 88 95 103 103 101 101 100 97 94 92 99 104 93 77 61 47 35 28 32 43 36 25 34 50 61 71 78 85 88 88 88 85 82 81 83 90 95 93 84 71 57 48 45 47 56 66 69 67 65 62 55 47 40 38 40 44 46 48 52 56 55
102 102 96 91 90 93 97 97 92 92 95 97 95 91 92 94 91 89 88 87 85 81 79 80 85 95 104 104 101 100 97 89 90 100 105 95 78 63 50 39 31 27 36 43 32 26 37 53 67 73 76 80 80 80 81 82 86 91 94 91 81 68 56 47 42 40 42 47 58 66 68 69 66 58 49 42 41 43 46 49 48 49 54 59 59
102 96 88 90 94 95 98 94 88 91 96 100 99 94 93 95 94 93 90 88 85 82 81 81 84 90 95 93 91 92 93 89 93 103 99 80 64 52 41 33 28 29 39 40 29 28 41 58 71 74 76 80 82 87 90 93 97 95 84 68 54 46 41 40 39 38 42 51 64 72 73 72 63 53 47 44 45 50 53 52 51 55 59 59 60
98 90 88 94 100 103 102 98 94 95 99 103 104 99 93 92 93 92 89 87 86 84 84 84 83 84 84 82 83 87 90 94 100 103 89 66 52 44 35 28 29 36 40 34 28 32 42 56 67 74 82 89 95 99 98 95 89 75 58 46 43 43 40 38 35 37 48 61 73 78 76 70 61 53 48 49 53 57 56 53 55 61 62 59 59
95 92 96 98 100 105 105 104 104 102 103 106 107 99 91 88 89 90 89 89 90 89 89 88 88 88 83 80 81 82 89 100 104 94 72 52 44 37 29 29 38 41 35 31 33 36 40 52 69 86 97 101 100 96 87 76 63 50 43 44 47 43 37 35 33 41 57 70 76 77 72 67 61 54 52 55 59 60 56 55 60 64 61 60 60
90 95 102 102 100 105 107 107 107 104 102 103 101 93 86 83 83 85 88 90 93 94 91 87 87 87 83 80 77 79 95 105 92 71 53 42 38 30 29 40 47 39 32 34 37 38 43 54 71 87 91 85 77 68 59 50 44 44 47 49 45 38 34 33 37 50 65 74 75 71 68 66 61 57 58 62 64 61 56 59 64 63 58 60 63
73 84 95 104 108 110 110 106 100 96 93 91 88 84 82 82 83 85 89 92 97 97 90 84 82 81 80 75 67 73 92 91 66 49 42 35 31 29 35 46 45 38 35 37 37 41 46 50 56 61 59 54 51 47 45 45 45 48 48 43 38 35 35 38 47 62 70 73 72 68 67 66 62 62 66 69 68 61 60 66 67 62 60 63 67
52 59 72 85 95 100 100 95 88 82 77 73 75 76 78 85 89 89 90 92 93 90 83 75 69 67 66 61 54 61 73 62 43 38 34 29 29 31 36 39 39 39 38 37 39 42 44 45 46 45 45 46 46 45 46 47 46 45 41 36 35 36 39 45 57 65 68 72 74 71 69 68 67 68 72 74 69 63 68 72 69 65 67 70 71
51 42 50 58 63 68 73 75 73 69 64 62 67 70 71 76 79 78 76 75 72 69 63 58 53 50 48 44 40 43 46 38 32 31 28 26 29 31 34 36 37 39 38 38 41 43 44 44 43 44 45 46 45 47 48 45 42 38 36 36 38 42 45 51 57 61 69 78 79 74 71 72 73 73 78 79 71 69 76 76 71 71 76 78 74
47 35 43 50 50 47 49 52 52 52 51 52 55 56 56 56 56 55 52 50 49 46 42 40 39 37 35 33 32 32 31 29 28 27 25 27 30 32 34 36 38 38 38 39 41 43 44 43 43 44 45 45 47 47 43 39 37 36 40 44 44 45 48 51 55 62 75 82 80 76 74 75 76 78 85 85 75 76 83 78 74 79 83 82 77
35 33 40 46 48 44 39 38 38 39 39 40 41 40 40 40 38 38 37 35 34 32 31 30 29 28 28 27 27 28 27 26 26 26 26 29 31 33 36 38 39 37 37 40 41 42 42 42 43 44 45 46 44 40 38 40 42 42 47 49 47 49 51 52 58 69 77 78 77 79 77 75 78 83 91 86 78 83 87 81 81 88 90 87 85
32 35 38 42 45 41 36 32 30 31 31 31 33 31 31 31 30 29 28 28 27 25 25 25 25 25 25 25 25 25 25 25 26 27 27 30 33 35 37 39 38 37 39 40 40 41 43 43 43 44 43 41 39 41 44 47 49 50 53 53 52 54 54 54 64 73 74 74 78 82 80 80 84 88 91 86 81 87 89 86 91 96 96 96 100
34 35 37 41 39 33 30 29 27 28 29 29 30 29 28 28 27 26 25 25 24 24 24 24 24 25 25 26 26 26 27 27 28 28 29 32 34 35 38 40 39 38 40 40 42 44 43 42 43 41 39 41 47 55 56 55 58 59 57 55 53 52 52 57 66 69 70 76 85 89 88 89 89 89 89 85 83 90 92 93 99 103 104 106 108
35 34 35 35 34 30 28 28 28 29 30 31 30 28 27 27 26 26 25 25 24 24 24 25 26 27 27 28 28 29 30 29 29 30 32 34 35 37 40 40 39 40 42 44 44 43 41 41 40 37 40 49 59 65 64 64 67 62 53 49 47 48 53 58 62 68 78 88 93 95 94 92 89 88 88 84 85 92 96 99 106 108 109 109 104
41 37 40 37 34 33 31 30 31 33 34 33 31 29 28 28 28 27 26 26 26 26 27 28 29 30 29 30 31 31 31 31 31 32 34 37 39 40 41 41 42 44 44 44 42 41 40 38 37 41 49 56 63 70 71 69 65 55 46 44 45 50 55 57 64 79 91 96 97 98 96 91 88 88 88 85 89 96 99 104 110 112 110 105 95
43 37 41 40 38 36 35 35 35 37 37 34 33 33 31 30 29 29 28 28 29 29 30 32 32 32 31 31 32 32 32 33 34 35 38 41 41 42 42 43 44 44 43 42 40 38 38 42 54 68 71 69 71 75 73 66 57 48 46 48 50 53 55 61 75 90 96 97 101 101 96 91 89 89 86 86 95 102 103 107 111 109 104 95 86
50 51 43 39 41 38 36 38 39 41 40 37 36 35 33 32 32 32 32 33 33 33 33 34 34 34 34 34 35 35 35 36 37 40 41 42 42 42 42 42 43 42 40 38 36 41 54 69 83 90 84 76 75 74 70 64 55 50 52 54 53 53 58 69 83 93 96 101 104 100 94 90 88 87 86 89 101 106 105 108 108 102 94 87 84
57 64 47 38 41 38 38 40 41 42 40 38 38 36 34 35 36 36 37 36 36 35 35 36 37 37 37 37 38 37 38 40 41 42 42 42 42 41 42 42 41 38 36 38 44 56 74 83 84 85 84 80 76 72 70 64 56 55 57 54 53 55 60 69 81 90 97 102 102 97 92 89 87 86 87 93 102 105 104 105 102 95 91 89 90
49 57 52 48 45 40 40 42 41 40 38 37 38 35 35 38 40 40 40 39 38 37 38 40 41 41 40 39 40 41 41 42 42 42 42 41 39 39 41 39 37 37 41 49 53 56 67 75 79 90 94 86 76 72 72 70 64 60 58 54 54 56 59 68 79 89 96 99 99 97 93 89 86 87 92 98 101 101 100 101 98 94 96 99 98
57 60 61 56 48 44 46 45 40 37 36 37 37 36 36 39 41 43 42 41 41 40 41 43 43 44 43 42 42 43 42 42 42 41 40 38 38 40 39 38 43 50 53 58 62 70 82 89 94 102 97 82 74 72 73 75 69 61 57 55 56 57 62 72 82 89 94 95 99 100 92 87 88 93 100 103 101 100 101 102 101 100 103 106 103
69 72 69 59 53 52 51 46 40 38 37 38 38 37 37 38 41 44 45 44 45 43 43 45 46 46 45 43 43 43 42 41 40 39 37 37 38 37 38 43 53 60 65 73 83 94 100 98 100 104 94 81 78 73 69 71 67 61 58 57 58 60 67 77 84 89 92 94 97 94 86 86 93 100 105 104 104 107 105 103 106 106 106 107 103
74 76 71 64 63 63 59 51 46 46 45 42 39 37 37 38 41 45 47 47 47 45 45 46 48 47 45 43 42 41 40 40 38 37 37 36 36 45 59 66 66 72 86 97 101 103 102 100 101 95 81 73 75 71 68 70 67 63 61 60 61 65 73 83 86 87 90 91 88 84 83 90 98 103 106 107 111 113 106 104 108 109 109 108 103
79 77 74 74 77 74 67 61 60 60 56 49 43 40 38 39 40 43 45 47 48 48 47 47 48 47 44 43 42 40 38 38 37 37 37 36 41 59 74 70 60 66 82 88 87 90 89 83 78 70 61 62 66 66 67 69 68 67 67 65 66 72 78 81 79 80 82 79 77 81 88 95 100 104 107 110 113 112 107 107 109 108 109 104 96
84 81 81 86 87 80 72 70 71 71 66 58 52 46 42 41 41 41 42 45 50 50 48 48 48 47 44 42 40 39 38 38 38 38 38 38 43 52 55 49 44 50 57 59 59 62 61 57 57 60 62 63 63 63 63 65 66 67 65 63 65 68 69 69 69 72 71 70 76 86 93 97 102 105 108 110 110 108 107 107 106 107 106 97 88
89 85 87 89 86 80 76 76 76 74 70 64 59 54 50 45 41 41 41 43 50 53 51 49 48 46 44 42 40 39 39 39 39 39 39 39 42 44 43 43 44 46 48 50 50 52 55 58 62 65 67 66 63 62 62 62 63 62 59 56 56 57 59 61 64 65 66 72 84 92 94 99 103 105 105 106 105 105 104 105 106 104 97 87 78
91 85 87 87 81 76 77 78 78 73 67 63 63 63 58 50 45 43 42 43 48 54 54 50 48 47 44 42 41 41 40 40 40 39 40 42 44 44 44 45 45 46 49 51 53 58 62 64 65 67 69 68 65 63 64 64 63 61 57 54 53 55 58 60 62 64 69 80 90 93 95 100 102 102 101 99 99 101 103 104 101 94 84 75 64
91 86 85 84 80 77 78 81 80 73 65 66 74 77 68 58 51 46 44 44 46 51 54 50 48 48 45 43 43 42 41 41 40 40 43 46 46 46 50 54 52 50 52 55 58 63 65 65 68 69 69 68 67 67 68 67 65 62 58 56 56 56 58 60 64 68 75 85 92 92 94 98 100 99 95 93 95 99 101 98 91 81 73 63 49
97 92 88 88 88 84 84 87 85 77 71 75 84 85 74 63 56 49 46 45 43 48 54 53 49 49 47 45 44 43 42 41 40 42 46 48 48 48 53 56 55 53 55 59 63 65 65 67 70 71 71 72 72 72 72 71 69 65 62 61 60 59 61 64 68 73 82 89 91 89 93 98 98 94 91 91 96 99 95 88 80 72 62 50 41
104 101 96 95 97 97 97 96 91 83 78 77 79 80 76 68 61 54 49 47 44 48 56 57 52 50 49 47 45 44 43 41 42 46 49 49 50 51 51 53 55 57 60 63 65 66 68 71 73 75 75 76 76 76 76 75 74 71 69 66 64 65 67 69 73 80 86 89 88 89 94 97 95 91 90 94 97 94 85 77 70 62 52 44 43
106 106 105 104 106 109 106 100 94 87 80 74 72 76 79 75 66 58 54 52 48 49 57 60 54 50 50 49 46 45 43 43 46 50 51 52 53 54 53 53 56 59 62 65 67 70 74 76 77 79 81 82 82 80 80 81 80 78 75 71 70 70 70 73 80 85 87 88 89 93 97 97 93 90 92 96 94 84 75 69 62 53 48 47 50
103 104 107 107 106 107 105 100 95 86 78 76 77 80 83 80 72 65 59 56 53 51 58 64 58 51 52 50 47 46 45 46 51 53 54 57 59 57 54 54 58 63 65 69 72 76 79 81 83 86 90 89 85 83 86 88 86 84 82 80 77 75 74 79 85 87 88 90 93 97 99 95 91 91 94 93 84 73 67 62 55 51 52 55 56
105 104 106 106 104 104 104 100 93 87 84 85 86 86 85 82 79 73 64 59 56 54 60 68 62 53 52 50 49 48 48 50 56 58 59 63 64 60 56 56 61 65 69 75 79 80 83 88 91 95 97 94 88 88 93 94 91 90 90 89 85 79 79 84 87 88 90 93 96 100 97 91 91 93 93 84 73 66 62 57 54 56 58 60 59
102 102 104 104 103 104 105 100 94 92 91 90 89 89 88 86 84 80 72 64 59 57 64 71 66 56 52 52 51 49 49 55 60 61 62 65 64 62 61 63 66 70 76 86 89 87 91 97 99 100 101 96 90 90 95 98 98 96 94 93 90 84 84 88 89 90 92 94 98 97 91 90 94 92 84 75 67 63 58 55 57 61 61 63 62
103 105 106 106 105 103 99 94 92 90 86 86 90 91 89 86 84 82 79 72 63 59 66 74 69 58 53 53 50 48 51 59 62 62 63 65 65 65 66 69 72 74 82 92 97 97 100 102 100 100 102 100 96 96 100 102 103 100 96 94 93 90 89 92 92 92 94 96 96 92 89 92 93 85 75 68 63 59 57 58 60 62 63 66 65
106 107 106 107 106 102 99 97 95 92 89 89 91 90 86 83 80 79 81 78 68 61 68 77 72 60 54 52 49 49 55 61 63 65 66 67 68 68 68 71 75 80 88 95 99 101 101 100 100 100 102 103 105 106 106 104 104 104 101 96 95 95 95 95 96 97 98 95 92 90 91 92 85 75 69 64 60 58 58 58 60 63 68 70 70
105 102 101 104 104 100 99 99 97 95 93 90 87 84 81 79 78 76 79 80 72 65 71 80 74 62 56 51 49 53 61 64 64 68 71 71 70 71 72 74 81 90 96 98 98 97 97 99 101 101 102 105 108 109 108 105 104 107 106 100 97 98 98 99 102 103 98 92 90 90 90 85 76 69 65 61 59 58 56 55 60 67 72 75 76
102 100 99 102 103 97 94 93 92 91 89 85 83 81 77 75 75 74 74 78 75 71 78 83 74 63 56 52 52 60 66 67 67 70 73 74 75 77 80 83 91 99 102 97 92 92 94 96 96 96 100 106 108 107 107 105 104 105 105 102 101 101 101 104 107 103 95 91 90 88 83 76 70 65 62 60 58 55 51 54 63 72 77 79 79
99 103 102 101 102 98 91 87 85 82 81 79 78 78 75 72 71 68 70 75 75 76 84 84 74 64 57 53 57 66 70 71 73 75 77 79 83 86 89 93 99 104 99 89 86 88 89 89 89 92 98 103 104 104 106 107 104 100 99 101 104 105 107 109 107 100 93 91 88 82 76 71 66 63 61 59 54 50 50 58 69 79 84 84 79
100 107 105 102 102 100 96 93 88 84 82 80 77 76 75 72 68 67 69 71 74 83 92 88 75 66 58 55 62 72 77 79 81 81 84 88 90 92 96 101 104 102 93 85 85 86 87 87 90 95 100 102 102 103 106 104 99 94 97 102 105 106 109 110 104 96 93 89 83 76 71 67 64 62 59 55 50 48 53 64 75 84 86 83 75
105 109 106 102 102 102 103 103 97 88 83 82 82 82 81 76 71 70 71 73 82 97 103 92 76 66 60 61 70 81 87 89 88 86 89 92 93 97 102 106 105 98 91 88 89 90 90 90 92 98 102 103 103 105 103 97 93 95 102 107 108 109 110 106 100 96 92 85 77 72 68 66 64 61 56 51 49 50 56 68 80 85 83 76 68
104 105 103 101 101 101 99 97 94 86 80 81 85 86 86 82 76 75 80 88 100 109 105 90 76 69 66 70 80 91 95 93 89 87 89 91 95 101 106 107 104 98 94 93 94 93 89 88 93 102 105 103 101 102 98 92 93 101 107 108 110 111 107 102 98 95 88 79 72 69 68 67 64 58 52 49 50 51 57 69 79 81 76 69 65
100 101 103 103 102 100 93 87 87 86 83 84 86 88 90 89 84 84 91 99 106 109 104 91 79 74 76 81 90 96 95 90 86 87 90 93 98 104 108 107 103 100 98 98 95 90 86 89 99 108 108 103 99 97 95 94 100 108 111 110 109 108 103 100 98 91 81 73 70 70 69 67 61 54 50 50 51 52 58 66 71 71 68 66 65
Wind_Speed
58 59 58 55 52 50 49 49 50 51 50 50 48 46 46 47 47 46 45 44 43 42 43 43 43 44 43 41 41 41 42 44 47 48 49 49 50 48 45 48 52 55 57 56 55 56 57 55 52 48 45 42 39 37 36 35 35 36 38 39 41 42 43 43 43 43 43 43 45 46 48 49 51 53 55 57 59 61 62 64 65 65 66 68 69
61 60 57 55 52 50 49 49 50 50 51 50 47 46 47 48 47 45 45 44 43 42 43 43 43 43 41 39 41 42 44 45 46 47 47 48 48 47 49 54 55 56 58 57 56 57 55 52 48 44 41 38 36 35 34 34 35 37 38 39 40 40 40 40 40 41 42 44 45 47 49 51 53 55 57 59 61 62 63 64 65 66 67 68 70
63 62 59 56 53 51 49 49 50 51 51 50 47 47 47 47 45 44 43 42 42 42 43 42 40 39 37 38 40 40 40 39 40 42 44 46 48 51 55 58 57 58 58 57 57 56 53 49 45 41 38 36 35 34 34 34 35 36 37 37 37 37 37 38 40 41 43 45 47 48 50 52 55 57 59 60 62 62 63 64 65 67 68 69 70
61 62 59 56 54 51 50 51 51 52 52 51 50 50 50 48 45 42 40 40 40 40 41 40 39 39 39 39 39 38 38 40 43 46 48 50 53 57 58 58 58 59 58 57 56 54 50 46 42 38 36 34 34 34 34 34 34 34 34 35 36 37 39 40 42 44 46 47 49 50 52 54 58 60 61 61 62 63 64 65 66 68 69 69 68
61 61 59 57 55 53 53 52 52 53 53 52 51 50 52 50 46 44 42 42 41 39 38 38 38 38 39 39 40 40 43 46 48 50 52 54 56 57 57 58 60 60 58 57 55 51 48 44 40 36 34 34 33 33 33 33 33 34 34 37 39 40 43 44 46 47 48 50 51 53 55 56 58 60 60 61 62 63 65 66 67 68 68 67 66
61 61 60 58 57 55 54 53 53 54 53 52 51 49 49 48 45 44 43 43 43 41 41 41 39 38 40 42 43 44 47 49 50 51 54 55 56 56 57 59 61 60 58 56 53 49 46 42 39 36 34 33 33 33 34 35 36 37 39 42 43 45 46 47 48 50 51 53 54 56 57 58 58 59 59 60 62 64 65 66 67 67 67 65 63
62 62 61 60 58 57 55 54 55 55 52 52 53 51 50 49 47 47 46 45 45 43 43 43 41 41 41 43 45 47 49 50 52 53 54 56 56 57 59 61 60 59 58 55 51 48 44 41 38 36 35 35 35 36 37 38 40 42 43 45 46 47 48 49 50 52 54 56 57 59 59 59 59 59 60 61 63 65 66 66 66 66 64 62 60
63 63 62 60 59 57 56 56 56 55 53 53 54 53 53 53 52 52 51 49 47 45 44 44 43 42 43 45 47 49 51 53 54 55 56 57 57 58 60 60 60 59 57 53 50 47 44 40 38 37 37 38 38 39 40 42 43 44 45 46 47 48 49 51 53 55 56 58 59 59 59 59 60 61 62 62 63 64 65 66 65 63 61 59 59
64 64 62 60 58 57 56 57 57 55 54 55 55 54 55 55 54 53 53 52 51 50 50 49 47 46 45 46 48 50 52 52 54 56 57 57 57 59 60 59 59 59 56 52 49 46 43 40 38 38 38 39 40 41 42 43 44 45 46 47 48 50 51 53 56 57 58 59 59 59 59 60 61 62 64 64 64 64 63 63 62 61 60 60 60
65 65 63 61 59 57 57 59 58 55 55 56 56 55 56 55 54 54 53 53 52 52 53 53 52 51 50 50 50 50 50 52 55 57 57 57 58 60 59 59 60 58 54 51 48 45 41 39 38 38 39 40 40 41 42 44 45 46 47 49 50 52 55 56 58 59 59 59 58 59 60 61 62 64 65 65 66 65 63 61 59 58 59 61 61
65 65 64 61 60 58 59 60 58 56 56 57 57 56 56 56 55 54 54 54 54 54 54 54 54 53 52 52 52 53 54 57 59 57 56 58 59 60 60 60 60 57 53 50 47 44 40 38 38 38 39 40 41 42 44 45 46 48 50 52 54 56 57 58 59 59 58 58 58 59 60 61 63 64 65 66 66 64 62 60 59 59 59 60 61
65 64 62 60 59 58 60 60 58 56 57 58 58 57 56 56 56 55 55 55 56 56 55 55 55 54 54 55 55 57 58 58 57 56 57 59 60 60 60 61 59 56 52 48 45 42 39 38 38 39 40 41 43 45 46 47 49 51 53 55 56 58 58 59 59 59 58 58 58 59 61 62 63 64 65 66 65 63 61 60 60 60 61 61 61
65 64 61 59 58 58 60 59 57 56 56 57 57 56 55 55 56 56 56 56 56 56 55 55 55 56 56 56 57 59 59 57 56 58 59 60 60 61 61 60 58 53 49 46 43 40 39 39 39 40 42 43 45 47 49 50 52 53 55 56 57 58 58 59 59 58 58 58 59 60 61 62 63 65 66 65 64 63 62 61 61 62 62 63 63
64 63 60 59 58 58 59 59 57 55 55 56 57 56 55 55 56 56 56 56 57 57 56 56 56 56 57 57 57 58 55 53 56 59 61 61 62 62 61 58 53 48 46 44 41 40 39 39 40 42 44 46 48 50 51 53 53 54 56 57 58 58 59 59 59 58 58 59 60 61 62 63 64 65 65 64 63 63 62 62 62 63 63 64 65
63 62 60 60 60 60 60 59 57 56 55 56 57 57 57 57 57 57 57 58 58 57 57 57 57 58 57 57 56 53 50 53 59 62 62 63 62 62 59 54 49 46 44 43 41 40 40 41 42 44 46 48 50 51 53 53 54 56 57 57 58 59 60 60 58 58 58 59 61 61 62 63 64 65 64 63 63 63 63 63 64 64 64 65 66
66 62 61 62 62 62 62 61 60 59 58 58 59 59 59 59 58 58 58 58 58 59 58 57 58 58 57 56 54 51 52 58 63 63 64 63 62 60 56 52 49 46 44 42 41 41 41 42 44 46 48 50 51 52 53 54 56 57 57 58 58 59 60 59 58 58 59 60 61 62 63 64 64 64 63 63 64 64 65 65 66 66 66 66 67
68 64 62 65 66 65 65 64 63 62 61 60 61 61 60 60 59 59 59 59 59 59 59 57 58 58 57 56 53 52 56 61 64 64 64 62 60 57 54 52 49 46 44 43 42 42 43 44 46 47 49 50 51 53 55 56 56 57 58 58 59 59 59 58 58 58 59 59 61 62 63 63 63 62 63 64 65 65 66 66 67 67 68 69 70
64 64 65 69 70 69 68 67 66 65 64 63 62 62 61 61 61 60 60 60 60 60 60 59 59 60 59 58 57 57 60 63 63 63 62 59 57 55 53 51 48 45 45 44 43 44 45 46 48 49 50 52 53 54 55 56 57 57 58 59 58 58 58 58 58 58 58 59 61 63 63 63 63 63 64 65 65 66 67 68 68 68 69 71 72
62 63 67 70 70 70 70 68 67 67 66 64 63 63 63 63 62 62 62 62 61 62 62 61 61 61 61 60 59 60 61 61 61 60 58 56 54 52 50 48 46 45 44 44 45 46 47 48 50 51 52 53 53 54 55 56 57 58 58 58 58 58 58 58 58 57 57 58 61 62 63 63 64 64 64 65 65 66 67 68 69 69 71 72 74
64 64 68 70 70 69 69 68 68 67 66 65 64 64 64 63 63 63 63 63 63 63 62 61 61 61 60 59 59 58 58 58 58 57 55 53 51 49 48 46 45 45 44 45 46 47 48 50 51 51 52 52 53 54 55 56 57 57 58 58 58 58 58 58 58 57 56 58 60 62 63 64 64 64 65 65 66 67 68 69 69 70 72 74 76
64 64 68 70 69 68 67 66 66 65 65 64 63 63 62 62 62 62 62 62 62 61 60 59 59 58 57 57 56 56 55 55 54 53 52 50 49 48 46 45 45 45 45 46 47 48 50 50 51 51 51 52 54 54 55 56 56 57 58 58 58 58 58 58 57 56 57 59 60 62 64 65 65 65 65 65 66 67 68 69 70 71 73 75 77
63 64 67 68 68 67 65 64 63 62 61 61 60 60 60 60 60 59 59 60 59 58 57 56 56 55 54 54 53 53 53 52 52 51 50 49 48 47 45 45 45 45 46 47 48 49 50 50 50 50 51 53 53 54 55 56 56 57 58 59 60 60 59 57 56 56 58 59 60 63 65 66 66 66 66 66 66 67 68 69 70 72 74 76 78
63 64 65 65 65 64 63 61 59 58 58 58 58 58 58 58 58 57 57 57 57 55 54 53 53 52 52 51 51 51 51 50 50 49 48 48 47 46 45 45 45 46 47 48 48 49 49 49 50 51 52 53 53 54 56 56 57 58 59 61 61 59 57 56 56 57 58 59 61 64 65 67 67 66 66 66 67 68 68 69 71 73 75 77 79
60 60 60 61 61 60 59 57 56 56 56 57 57 56 57 56 56 56 56 55 54 53 51 51 51 51 50 49 49 49 49 49 48 47 47 47 46 45 45 45 45 46 47 47 47 47 48 49 50 51 51 52 53 54 56 56 57 59 61 61 60 58 56 57 57 58 59 60 62 64 66 67 67 67 67 67 68 68 68 69 71 74 76 78 81
56 58 58 59 58 57 56 54 53 54 55 56 55 55 55 54 54 54 53 52 51 51 50 49 50 50 49 48 48 48 47 47 47 46 46 45 45 45 44 44 45 46 46 46 46 47 48 49 49 49 50 52 53 54 55 56 58 61 62 61 59 57 58 58 59 59 60 61 63 65 67 68 68 67 67 67 68 68 69 70 72 75 77 80 83
56 57 57 57 56 55 54 53 52 53 54 54 53 53 53 53 52 52 51 50 50 49 49 49 49 49 48 47 47 46 46 46 45 45 45 45 44 44 44 44 44 44 44 45 46 47 47 47 48 49 51 51 52 54 55 57 60 61 60 59 59 59 59 59 59 60 61 62 64 66 67 68 68 68 68 68 69 69 70 71 73 76 79 82 85
59 58 57 57 56 54 53 52 52 52 53 52 52 52 51 51 51 51 50 50 49 49 48 48 48 47 47 46 46 45 45 44 44 44 44 43 43 43 43 42 42 43 44 44 45 46 47 47 49 50 50 51 52 54 56 59 61 60 59 59 60 60 59 59 60 61 62 64 65 67 68 69 68 68 68 69 69 69 71 72 75 78 81 84 87
62 61 58 57 56 54 53 53 53 52 52 51 51 51 50 50 50 50 50 49 49 48 47 47 46 46 46 45 44 44 44 44 43 43 43 42 41 41 42 42 42 43 43 43 44 45 45 47 48 49 50 52 53 54 56 59 61 60 60 61 61 61 61 61 61 62 63 65 66 67 68 69 69 69 70 69 69 70 72 74 77 80 83 86 89
61 61 59 58 57 55 54 54 54 53 52 52 51 50 49 49 49 50 49 48 48 47 46 46 46 45 45 44 44 43 43 43 42 41 41 40 40 41 42 42 42 42 42 43 43 44 44 46 47 49 51 53 53 55 57 60 61 62 62 62 62 62 62 62 63 64 65 66 67 68 68 69 69 69 70 70 70 71 73 76 79 82 85 88 91
59 60 59 58 57 56 56 56 55 53 53 53 52 51 50 49 49 49 49 48 47 46 46 45 45 44 44 43 43 43 42 41 40 39 39 39 40 41 42 41 41 41 41 40 40 41 43 44 46 50 53 54 54 58 60 61 63 63 63 63 63 63 63 63 64 65 65 66 66 67 68 68 69 69 69 70 71 73 75 78 81 84 87 89 92
59 59 58 57 56 56 57 56 55 55 54 54 53 52 51 49 49 49 49 48 47 46 46 45 44 44 44 43 43 42 41 40 39 39 39 39 40 40 39 39 41 41 39 38 38 40 42 45 49 53 55 56 57 60 62 62 63 63 64 64 64 64 64 64 65 65 65 65 66 66 67 67 68 69 69 71 72 74 77 79 82 85 88 90 92
59 58 56 56 56 56 56 56 55 56 56 55 53 52 51 50 50 49 48 48 47 46 46 45 45 45 44 43 42 41 40 39 39 39 40 39 38 38 38 40 42 43 42 41 42 43 46 49 52 55 56 57 57 59 60 61 62 63 64 65 64 64 65 65 65 65 65 65 65 66 66 67 68 69 70 71 73 75 78 80 83 86 88 90 92
59 57 55 54 55 56 56 55 56 56 56 55 53 52 52 51 51 49 48 48 47 47 47 46 46 44 43 42 41 41 40 40 40 40 40 39 38 39 41 43 43 43 43 43 43 45 48 49 51 54 56 56 56 57 58 59 61 62 63 63 63 64 65 65 65 65 65 65 65 65 66 67 68 69 71 72 74 76 79 82 84 86 89 91 92
59 57 55 53 54 55 55 55 55 56 56 55 53 52 52 52 51 50 49 48 48 48 47 46 46 44 43 42 41 41 41 41 41 41 41 41 41 41 42 43 43 43 43 44 45 46 48 49 51 53 55 56 57 57 58 59 60 61 62 62 62 63 64 64 64 64 64 64 64 65 66 67 69 70 72 73 75 78 80 83 85 88 90 91 91
60 57 55 54 54 55 55 55 55 56 56 54 53 52 52 52 52 51 50 49 49 48 47 46 45 44 43 42 42 42 42 42 42 42 42 42 42 42 43 43 43 43 44 45 46 47 49 50 51 53 54 56 57 58 58 59 60 61 61 62 63 63 64 64 64 64 64 64 65 66 67 68 70 71 73 75 77 80 82 84 86 88 90 89 88
60 58 56 55 54 55 55 55 56 56 55 54 53 53 53 52 52 51 50 50 49 49 48 46 44 43 43 43 43 43 43 43 43 42 42 42 43 43 42 42 43 44 44 45 46 47 49 51 52 53 55 56 57 58 58 59 60 61 62 63 63 64 64 64 64 64 64 64 65 67 68 69 71 72 75 77 79 82 84 86 88 89 89 87 85
60 58 56 55 55 55 55 56 56 55 55 54 53 53 52 52 51 50 50 50 50 49 48 46 44 43 44 44 45 44 44 44 44 43 43 43 43 43 43 42 44 45 45 46 47 49 50 51 53 54 55 57 57 58 58 59 60 61 62 63 64 64 64 64 64 64 64 65 66 67 69 70 72 74 77 79 81 84 85 87 89 89 87 84 81
59 57 56 55 55 55 56 56 56 56 55 54 53 53 52 51 51 50 50 50 50 48 47 45 44 44 45 45 45 45 45 45 44 44 44 44 44 44 44 44 45 46 46 47 49 50 51 53 54 55 56 57 57 58 59 59 60 61 62 63 64 64 64 64 64 64 65 66 67 69 70 72 74 76 79 81 83 85 87 88 88 86 83 80 77
58 56 55 55 55 56 57 57 57 56 55 53 52 52 51 51 51 50 50 50 49 48 47 45 45 45 46 46 46 46 46 45 45 44 44 44 44 45 45 46 46 47 47 49 50 51 52 54 55 55 56 57 58 58 59 60 61 62 63 63 64 64 64 64 65 65 66 67 69 70 72 74 76 78 81 83 85 87 88 88 86 83 79 76 74
57 56 56 56 58 59 59 59 58 56 54 52 52 52 52 51 51 50 50 49 49 48 47 46 46 46 47 47 47 47 46 46 45 45 44 44 45 46 46 46 47 47 48 50 51 52 53 55 55 55 57 58 58 59 59 60 61 62 63 63 64 64 64 65 66 67 68 69 70 72 74 76 78 80 82 84 86 87 87 85 82 78 76 73 71
58 57 58 59 60 60 60 59 57 54 53 52 52 52 52 52 51 50 50 49 48 47 47 46 47 47 47 48 47 47 47 46 45 44 44 44 45 47 47 47 48 48 49 50 52 53 54 54 55 56 57 59 59 59 60 61 61 62 63 63 64 65 65 66 67 68 69 70 72 73 75 77 79 81 84 86 87 87 85 81 78 75 72 70 68
59 59 59 60 60 60 59 57 55 54 53 53 53 53 52 52 51 51 50 48 47 47 47 47 47 47 48 48 48 48 47 46 45 45 44 45 46 47 48 48 49 49 49 51 53 55 55 55 55 56 58 60 60 59 60 61 62 62 63 63 64 65 66 67 68 69 70 71 73 75 76 78 80 83 85 87 87 85 81 77 74 71 69 67 65
59 60 60 60 60 60 58 56 55 55 54 54 53 53 53 53 52 51 50 48 47 47 47 47 48 48 48 49 49 49 48 46 46 45 45 46 47 47 48 49 50 50 50 51 54 55 55 55 55 56 58 60 61 60 61 62 62 63 63 64 64 66 67 68 69 70 71 72 74 76 77 79 81 84 86 86 84 81 77 74 71 68 66 65 63
59 60 59 59 59 58 56 56 56 55 55 55 55 55 54 54 53 52 50 49 48 48 47 48 48 49 49 50 50 49 48 47 46 46 46 47 47 48 49 49 50 51 51 51 53 54 55 55 56 57 59 60 61 61 62 62 63 63 64 64 65 66 67 69 70 71 72 73 75 77 78 80 83 85 85 84 80 76 73 71 68 65 64 62 60
58 58 57 58 58 57 56 56 56 57 57 57 57 56 55 54 53 52 50 49 48 48 48 48 49 50 51 51 50 49 48 47 46 46 47 48 48 48 49 49 50 51 51 52 53 54 55 56 57 58 59 59 60 61 62 63 63 64 65 65 66 67 69 70 71 72 73 75 76 78 79 82 84 84 83 80 76 73 70 67 64 62 60 59 58
59 58 57 58 59 58 58 57 57 57 57 57 57 57 56 55 54 52 51 49 48 48 48 48 50 51 52 51 49 49 49 48 47 48 48 49 49 48 49 50 51 51 52 53 54 55 55 57 58 59 59 60 61 62 63 63 64 64 65 66 68 69 70 70 71 73 74 76 77 79 81 83 83 82 79 75 72 69 66 64 61 59 58 57 56
59 59 58 59 60 60 60 59 58 58 57 57 57 56 56 55 54 53 51 49 48 48 48 49 51 52 52 50 49 49 49 48 48 49 50 50 49 49 50 51 51 52 54 54 54 55 56 57 58 59 60 60 61 62 63 64 64 65 66 67 68 70 70 71 73 74 75 77 78 80 82 82 81 78 75 71 68 65 63 60 58 56 55 55 54
60 61 60 61 62 62 61 61 60 58 58 57 57 56 55 55 54 52 50 49 48 48 48 50 52 52 51 50 49 49 49 49 50 50 50 50 49 49 50 52 53 54 55 55 55 56 57 59 59 60 61 61 62 62 63 64 65 66 67 68 69 70 71 72 74 75 76 78 79 81 81 80 78 75 71 68 65 62 60 57 55 54 53 52 52
60 61 63 63 64 64 63 62 61 60 59 58 57 56 56 54 53 51 49 47 47 48 50 52 53 52 51 50 49 49 50 51 52 52 51 51 50 51 52 54 55 56 56 56 57 58 59 60 60 61 61 62 62 63 64 65 65 66 67 69 70 71 72 73 74 76 77 79 80 81 80 77 75 71 68 64 61 59 57 54 53 52 51 51 52
60 62 62 62 64 64 64 62 61 60 58 58 57 57 56 55 53 50 48 47 48 50 52 53 53 51 50 50 50 51 52 53 54 54 53 52 52 53 54 55 56 56 57 57 58 59 60 61 61 61 62 63 63 64 65 66 66 66 68 69 70 71 72 73 75 77 78 80 80 79 77 74 72 68 64 60 58 57 54 52 51 50 50 50 52
62 65 65 63 63 64 63 62 61 59 57 57 57 56 56 54 52 50 49 49 50 51 52 53 52 51 51 51 51 53 54 55 55 55 54 54 53 54 55 55 56 57 58 59 60 61 61 61 61 61 62 63 64 64 65 66 66 67 68 70 70 71 73 74 76 77 79 79 78 76 74 72 69 65 61 58 56 55 53 51 49 48 49 50 52
Wind_Direction
254 253 252 252 252 253 253 254 256 258 259 260 262 264 265 265 266 267 269 272 275 276 276 277 279 280 282 282 281 279 277 278 280 281 282 284 286 286 289 295 298 300 304 305 305 305 305 306 305 303 300 297 294 292 291 291 292 292 292 293 293 293 294 294 295 295 295 296 297 299 301 302 302 303 302 301 300 299 298 298 298 299 299 300 301
251 253 252 252 252 251 252 253 255 257 258 259 261 263 264 264 265 267 270 272 274 275 276 278 280 281 282 283 283 280 278 280 281 281 283 285 286 285 290 297 300 303 306 306 307 308 308 307 305 302 298 295 293 293 293 294 295 295 295 294 294 294 294 295 295 295 297 298 300 301 301 301 301 301 300 299 298 298 298 298 299 299 300 301 302
248 251 251 251 251 251 251 252 254 256 257 258 258 259 260 262 264 267 270 271 272 275 277 279 280 281 282 284 285 282 278 281 283 284 285 287 288 289 294 298 301 305 307 307 308 309 309 307 304 301 298 295 294 294 295 295 296 295 295 295 294 295 295 295 296 297 298 299 300 300 301 301 300 300 299 298 298 298 299 299 299 300 301 302 303
245 247 248 249 250 250 250 252 253 254 255 256 256 257 259 261 264 266 268 269 271 274 274 275 277 281 282 283 283 280 279 283 285 286 288 290 291 293 296 299 302 306 307 308 310 309 308 306 302 300 298 296 295 296 296 296 296 295 295 296 296 296 296 296 297 298 299 300 300 301 301 300 299 299 299 299 299 299 299 300 301 302 303 303 303
243 245 247 248 249 249 250 252 252 253 253 254 256 259 260 261 262 264 265 267 269 270 271 274 277 280 282 283 283 283 284 287 287 289 290 291 292 294 296 300 304 306 307 309 309 309 307 304 301 299 297 297 298 298 298 297 297 297 297 298 298 297 297 298 299 300 301 302 301 300 300 299 298 298 299 299 299 299 300 301 302 303 304 304 304
243 245 247 248 248 249 250 251 251 251 253 255 256 257 258 260 261 262 262 264 267 268 270 273 274 275 277 279 281 283 285 286 287 289 291 291 291 293 297 301 304 306 307 309 308 307 304 301 299 297 296 297 298 298 299 298 298 297 297 298 298 298 299 300 301 302 302 301 300 299 299 298 298 298 298 299 299 299 301 302 304 305 305 306 306
244 246 246 247 248 249 250 250 250 251 253 255 255 254 256 258 260 261 261 262 265 267 268 268 270 273 274 274 276 278 280 282 285 287 289 290 292 294 298 302 304 305 307 307 307 305 303 300 297 295 294 294 295 296 297 297 297 297 297 298 298 299 300 301 301 301 300 300 299 299 299 299 299 299 299 299 300 301 303 305 305 306 306 307 308
244 245 245 247 248 248 249 250 251 252 253 254 255 256 257 258 260 261 262 263 264 266 267 267 268 271 273 273 274 276 278 281 283 286 289 290 292 295 299 302 303 305 306 306 305 304 301 298 295 293 292 292 293 294 296 297 297 297 298 298 299 300 300 300 300 300 300 300 300 300 300 300 300 300 299 300 301 304 306 307 307 308 308 308 309
243 244 245 246 247 248 249 250 251 253 254 254 255 256 257 258 260 262 263 264 265 265 267 268 270 272 273 273 275 276 279 282 284 287 289 289 292 297 300 301 302 304 304 304 304 302 299 297 295 293 292 292 294 295 296 296 297 298 298 299 299 300 299 300 300 300 300 301 301 301 300 300 301 301 301 303 305 307 307 308 309 309 309 310 311
244 244 245 246 247 248 249 250 252 253 254 254 255 256 257 259 261 262 264 265 266 266 267 268 270 272 273 274 276 277 279 283 286 287 287 290 294 298 299 300 302 302 302 302 302 300 297 296 295 294 294 295 296 296 296 297 298 298 299 299 299 299 299 300 300 301 301 301 301 300 300 301 302 302 304 306 308 309 310 310 309 310 311 311 312
244 245 246 247 248 249 249 250 252 253 253 254 255 256 258 259 261 262 263 265 266 266 267 267 268 270 272 273 276 278 281 285 287 286 288 292 296 297 298 299 300 301 301 301 300 298 296 296 295 295 296 296 296 297 297 298 298 299 299 299 299 300 300 300 301 302 302 302 302 301 302 302 303 305 307 309 310 311 311 311 311 311 312 312 313
245 246 247 248 249 249 250 251 252 252 253 254 255 256 258 259 261 262 263 264 265 266 267 268 268 270 271 273 276 280 284 285 285 286 290 294 296 296 298 299 299 299 300 299 298 296 296 296 295 295 296 296 297 297 297 297 298 298 299 300 300 300 301 301 302 303 303 303 302 302 303 304 306 308 309 311 312 312 312 312 312 313 313 313 314
246 247 248 248 249 249 250 252 252 252 253 255 256 257 258 259 261 262 263 264 265 266 268 269 270 271 272 275 277 281 284 282 282 287 291 293 294 295 296 297 298 298 298 298 297 295 295 295 295 295 296 296 296 296 296 297 298 299 300 300 301 301 302 302 304 304 304 303 303 304 305 306 308 309 311 312 313 313 312 313 314 314 314 313 314
246 248 248 249 249 250 251 251 252 252 253 255 256 258 258 259 260 261 263 264 265 267 268 270 271 272 274 276 278 282 283 280 282 287 290 292 293 294 295 295 296 297 297 296 295 295 295 295 295 295 295 294 294 295 296 297 298 300 301 301 301 302 303 304 305 305 305 304 305 306 307 308 309 310 312 313 313 313 313 314 314 314 314 314 314
244 247 249 251 251 251 251 252 252 252 252 254 256 257 258 259 260 261 263 264 266 267 269 270 272 273 275 277 280 283 280 277 282 286 288 290 291 292 293 293 294 297 296 295 295 295 295 294 294 293 293 293 294 295 297 298 300 301 302 302 302 303 304 305 306 306 305 305 307 307 308 308 310 311 313 314 313 313 314 314 314 314 314 315 316
244 246 248 250 250 249 250 251 252 252 252 253 255 257 259 260 261 262 264 265 267 268 269 272 273 274 275 277 280 279 274 276 282 285 287 288 289 290 290 291 293 296 295 294 294 294 294 294 294 293 294 295 296 297 298 300 301 302 302 302 303 305 306 306 307 306 306 307 308 308 308 309 311 313 314 314 314 314 314 315 315 315 315 316 317
244 244 246 247 248 249 250 251 252 252 253 254 255 257 259 261 262 263 264 266 267 269 270 272 272 274 274 276 277 274 272 277 281 283 285 287 287 288 288 290 293 294 294 294 293 293 294 294 295 295 296 297 298 299 300 301 301 302 302 303 304 305 306 306 306 307 308 308 308 308 309 311 313 314 315 315 314 315 315 315 315 316 317 317 318
243 243 246 248 249 249 250 251 252 254 255 255 257 258 259 261 262 263 265 266 267 269 270 270 271 273 274 275 274 273 274 278 281 282 284 285 285 286 287 290 291 292 292 292 292 292 293 294 295 296 297 298 299 299 300 301 301 302 303 304 305 305 306 306 307 308 309 308 308 309 311 312 314 315 316 315 315 315 315 315 316 317 317 318 318
242 243 246 248 249 249 250 251 253 254 256 257 257 259 260 261 263 264 265 266 267 268 269 270 271 273 274 275 275 275 276 278 280 281 282 283 284 285 286 288 289 290 291 290 291 292 293 294 295 296 298 298 299 300 300 301 302 303 304 304 305 306 307 308 309 309 309 308 308 310 312 313 314 316 316 315 315 315 315 316 317 317 318 318 319
242 242 244 247 249 250 251 252 253 255 257 258 259 260 261 262 263 264 265 266 267 268 270 271 272 273 274 275 276 276 277 278 279 281 281 282 283 284 285 287 288 289 290 290 291 291 293 295 296 297 298 299 299 300 300 301 302 304 304 305 306 307 308 309 309 309 308 308 309 311 312 314 315 316 315 315 315 315 315 316 317 318 318 319 320
242 241 244 247 249 250 251 253 254 256 258 259 260 261 262 263 264 264 266 267 268 269 270 272 272 273 274 275 275 276 277 278 279 280 281 281 282 283 285 286 287 288 289 290 291 292 294 295 296 298 299 299 299 300 301 302 302 304 304 305 307 308 308 309 309 309 308 309 311 312 313 314 315 315 315 315 314 315 316 317 317 318 318 319 320
242 242 243 246 249 251 253 255 256 257 258 259 260 261 262 262 263 264 265 266 267 269 270 271 272 272 273 274 275 276 276 277 278 279 280 280 281 283 285 286 287 288 289 290 292 293 294 296 297 298 299 299 299 300 301 302 303 304 305 306 307 308 309 309 309 309 310 311 312 313 313 313 314 314 315 314 314 315 316 317 317 318 318 319 320
243 244 246 248 250 252 254 255 256 257 258 258 259 260 261 261 263 264 265 266 267 268 269 270 271 271 272 273 274 274 275 276 277 278 279 280 282 283 284 285 286 288 289 291 292 293 295 297 298 298 298 298 299 300 302 302 303 304 305 305 307 309 309 310 310 311 312 312 312 312 312 312 313 314 314 314 314 316 316 316 317 318 318 319 319
245 246 248 249 251 252 254 254 255 255 256 256 257 258 259 261 262 263 264 265 266 267 268 269 269 270 270 271 272 273 274 275 277 278 279 281 282 283 284 285 286 288 290 291 292 294 296 296 296 297 297 297 299 300 301 301 302 303 304 306 308 310 310 311 312 312 312 312 312 311 311 311 313 314 314 314 315 316 316 316 317 318 318 319 319
248 247 247 249 250 251 252 253 253 253 254 255 256 257 258 259 261 262 263 264 265 266 266 267 267 268 269 270 271 273 274 276 277 278 279 280 281 283 284 285 286 288 289 291 293 294 295 295 296 296 296 297 298 299 300 300 301 302 304 307 310 311 312 312 312 311 311 311 310 310 310 311 313 314 314 314 315 315 316 316 317 317 318 318 319
250 249 248 249 250 250 251 251 251 252 253 254 256 257 258 259 260 261 262 263 263 264 265 266 267 269 270 271 273 274 275 276 277 278 279 280 281 283 284 285 286 287 289 291 293 294 294 294 294 294 295 297 298 299 299 299 300 302 305 308 310 312 312 311 310 310 310 310 309 309 310 311 313 313 314 315 315 315 316 316 317 317 318 319 320
245 248 248 248 249 250 250 251 251 251 253 254 255 257 258 259 260 260 261 261 263 264 265 267 268 270 271 272 273 274 275 275 276 277 279 280 282 283 284 285 286 288 290 292 292 293 293 293 293 294 295 297 298 299 298 297 300 304 306 309 311 311 310 310 309 310 310 309 309 309 310 312 313 314 314 314 315 315 315 316 317 317 319 320 321
242 245 246 247 248 249 250 250 251 252 253 255 256 257 258 258 259 260 260 261 263 265 266 268 269 271 272 272 273 274 274 274 275 277 278 280 282 283 284 285 287 289 291 291 291 292 291 291 292 293 294 296 298 298 297 297 301 306 308 309 310 310 310 310 310 310 309 309 309 309 310 312 313 314 314 314 315 315 316 317 318 319 320 321 322
243 244 246 247 248 249 249 250 251 252 254 255 256 256 257 257 258 260 261 262 263 265 266 268 270 271 272 272 272 272 272 274 275 276 278 280 282 283 284 287 289 290 291 291 291 291 291 291 292 291 293 296 298 297 297 298 303 306 308 308 309 309 309 309 309 309 309 308 308 309 310 312 313 313 314 314 315 316 317 318 319 320 321 321 321
245 246 247 248 249 250 250 251 252 253 253 254 254 255 256 257 258 260 261 262 263 264 266 267 269 270 271 271 270 270 272 274 275 277 278 280 282 284 287 289 289 289 289 290 290 290 290 291 289 290 293 296 295 295 297 300 303 305 307 307 307 308 308 308 308 307 307 308 308 309 311 313 313 313 314 315 316 317 318 319 319 320 320 320 321
247 247 248 250 251 251 252 253 253 253 253 253 253 254 255 256 257 258 260 261 262 263 264 266 268 268 269 269 269 270 272 274 275 276 278 281 285 287 287 287 287 285 284 283 282 283 283 284 286 289 292 293 292 294 298 300 302 304 305 305 306 307 307 306 306 306 307 307 308 310 312 313 313 313 314 315 316 317 318 318 319 319 319 320 320
249 249 249 250 251 251 252 253 253 253 253 253 254 254 255 255 256 257 258 260 261 262 263 264 265 266 267 268 269 271 272 273 275 277 279 282 284 281 279 280 281 281 280 280 281 280 280 282 286 289 291 292 293 295 298 300 301 302 303 304 304 305 304 304 305 306 307 308 310 311 312 313 313 313 314 315 316 317 317 317 318 318 318 319 320
249 250 250 250 250 252 253 253 253 254 254 254 254 254 254 254 255 256 257 258 259 260 261 263 264 266 267 268 269 271 272 274 276 278 281 281 280 277 277 279 280 281 282 284 285 284 284 287 288 289 291 294 296 296 297 299 299 300 301 302 303 303 303 304 305 306 308 309 310 312 312 312 313 313 314 315 316 316 316 317 317 318 318 319 319
248 249 249 249 250 251 253 253 254 255 255 255 254 254 254 254 255 255 256 257 258 259 261 262 264 266 266 267 269 271 273 275 277 279 280 280 280 280 281 282 283 285 286 287 288 287 289 290 291 292 293 295 296 297 298 299 300 301 302 302 303 303 304 305 306 307 308 309 311 311 312 312 312 312 314 315 315 316 316 317 317 318 318 318 318
248 249 249 249 250 251 253 254 255 255 256 256 256 255 254 254 254 255 256 257 258 258 260 261 263 265 267 268 269 271 273 275 277 278 279 280 281 282 283 283 285 286 287 288 289 290 291 292 293 293 294 295 296 297 298 300 301 302 303 303 304 304 305 306 307 308 308 310 310 311 311 311 312 313 314 315 315 316 316 317 317 317 318 318 318
247 249 250 250 251 252 253 254 255 256 257 258 257 256 255 255 255 255 256 257 258 258 259 261 263 265 266 268 269 271 273 274 276 277 279 281 282 283 283 283 285 287 288 289 290 291 292 293 294 295 295 295 296 298 299 300 302 303 304 304 304 305 305 306 307 308 308 309 310 310 310 311 312 312 314 315 315 316 316 317 317 317 317 318 318
248 249 250 251 251 252 253 253 254 256 257 257 257 257 257 257 256 256 256 257 258 259 259 261 262 263 265 267 269 271 273 274 276 278 280 281 282 283 283 283 285 287 289 289 290 291 293 294 295 295 295 296 297 298 299 301 302 303 303 304 304 305 305 306 307 308 308 308 309 310 310 311 312 313 314 315 315 316 316 317 317 317 317 317 318
248 249 250 250 251 251 252 253 253 254 255 256 256 257 258 258 258 257 257 257 258 259 259 260 261 262 264 266 268 270 272 274 277 279 280 281 282 283 283 284 286 288 288 289 290 292 293 294 295 295 295 296 297 299 300 301 302 303 303 304 304 305 305 306 307 307 307 308 308 309 310 311 311 313 314 315 315 316 316 317 317 317 317 317 318
246 247 248 248 249 250 251 252 252 253 255 256 257 257 258 258 258 258 257 257 257 258 259 259 260 262 263 265 268 270 272 275 277 278 280 281 282 283 284 285 286 287 288 289 291 292 294 294 295 295 296 296 298 299 300 302 302 303 303 304 304 305 305 306 306 306 307 308 308 309 310 311 312 313 314 314 315 316 316 317 317 317 317 318 319
244 245 246 246 248 249 250 251 252 254 256 257 257 257 257 258 258 258 258 257 257 257 258 258 259 261 263 265 268 270 272 274 276 278 279 281 282 283 284 286 287 287 288 289 290 292 293 294 295 296 296 297 298 300 301 301 302 302 303 304 304 305 305 305 305 306 307 308 308 309 310 311 312 313 314 314 315 316 317 317 317 317 317 318 319
243 244 245 246 247 249 250 252 254 256 257 257 257 257 257 258 258 258 258 257 257 257 257 257 259 261 263 265 267 269 271 273 275 277 279 280 282 283 285 286 286 287 288 289 290 292 294 295 296 296 296 297 299 300 301 301 302 302 303 304 304 304 304 304 305 306 307 308 309 310 310 311 312 313 314 314 315 316 317 316 316 317 317 318 319
243 243 244 246 248 249 251 253 254 255 256 256 256 257 257 258 258 258 258 258 257 257 257 257 258 260 263 264 266 268 270 272 275 276 278 280 282 284 286 286 286 287 288 289 291 293 295 295 295 296 296 297 299 300 300 301 301 302 303 303 303 303 304 305 306 307 308 308 309 310 311 312 312 313 314 315 315 316 316 316 316 317 317 317 318
243 244 245 247 249 250 252 253 254 255 255 255 256 256 257 258 258 258 258 258 257 257 257 257 258 260 262 263 265 267 269 271 274 276 279 282 283 285 285 285 285 286 287 289 291 293 293 294 294 295 297 298 299 300 300 300 301 302 302 303 303 303 304 305 306 307 308 309 309 310 311 312 313 313 314 315 315 315 316 316 316 316 316 317 318
243 245 247 248 250 252 253 254 254 254 255 255 255 256 257 258 258 259 259 258 258 257 257 257 258 260 262 263 264 267 269 271 274 277 280 282 283 284 283 283 284 286 288 290 291 291 292 293 295 296 296 297 298 299 299 300 301 302 302 303 303 304 305 306 307 308 308 309 310 311 311 312 313 314 314 315 315 315 316 316 316 316 317 317 318
243 245 247 249 250 251 252 253 253 253 253 254 255 256 257 258 259 259 259 258 258 257 256 257 259 260 261 263 265 267 269 271 275 278 280 281 283 284 283 283 284 286 288 290 291 292 293 294 295 296 296 297 297 298 299 300 301 301 302 303 304 304 305 306 307 308 308 309 310 311 312 312 313 314 314 314 315 315 315 315 315 316 316 317 318
245 246 247 249 251 251 252 252 253 253 253 254 255 256 257 258 259 259 259 258 257 256 255 256 258 259 261 263 265 267 269 273 276 278 280 282 284 284 284 283 284 286 288 291 292 293 293 294 295 295 295 296 297 298 299 299 300 301 302 303 304 305 306 307 307 307 308 309 310 311 312 312 313 313 314 314 315 315 315 315 315 316 317 317 319
247 248 248 249 251 252 252 253 254 254 255 256 256 257 258 258 259 259 258 257 256 255 254 256 257 259 261 263 265 268 271 274 277 279 281 282 283 283 283 283 284 286 289 291 292 293 294 294 295 295 296 296 297 298 298 299 300 301 302 303 304 305 306 307 307 307 308 309 310 311 312 312 312 313 314 315 315 315 315 315 316 316 317 318 319
248 250 249 249 251 252 253 253 254 255 256 257 258 258 259 259 259 258 257 256 255 254 255 256 257 259 261 264 266 269 272 275 277 279 281 282 282 282 282 283 285 287 290 292 293 294 294 295 296 296 297 297 297 298 298 299 300 302 303 304 305 305 306 306 306 307 308 309 310 311 312 312 312 313 314 315 315 315 315 315 316 316 317 318 319
247 250 250 250 250 250 251 252 253 255 256 258 259 259 259 259 258 258 257 256 255 254 254 256 257 260 263 265 267 270 272 274 276 278 280 281 281 282 283 284 286 288 290 292 293 294 295 296 296 297 297 297 297 297 298 299 302 304 305 305 305 305 305 306 306 307 308 310 311 311 311 311 312 313 315 315 315 315 315 316 316 316 317 318 319
244 248 250 250 249 249 250 252 254 255 257 258 259 259 259 258 258 257 256 254 253 253 254 256 258 261 263 265 267 269 271 273 276 278 279 281 282 283 284 285 287 289 291 292 294 295 295 296 297 297 296 296 296 297 299 301 303 305 304 304 304 304 305 306 307 308 309 310 310 311 311 311 312 313 314 314 314 314 316 316 316 316 317 318 318
242 244 246 249 250 251 252 253 254 256 257 258 258 258 257 257 256 255 253 252 252 253 255 257 260 262 263 265 267 269 271 273 276 278 280 282 283 284 284 285 287 289 291 292 294 295 296 297 296 296 295 295 297 298 300 302 304 304 303 303 303 304 305 306 307 308 309 310 310 310 311 311 311 312 313 313 313 314 315 316 316 317 317 318 318